Other Surface Observations
Issued by NWS Jacksonville, FL

Home | Current Version | Previous Version | Text Only | Print | Product List | Glossary On
Versions: 1 2 3 4 5 6 7 8 9 10 11 12 13 14 15 16 17 18 19 20 21 22 23 24 25 26 27 28 29 30 31 32 33 34 35 36 37 38 39 40 41 42 43 44 45 46 47 48 49 50
000
SXUS52 KJAX 181910
OSOJAX
OTHER SURFACE OBSERVATIONS
NATIONAL WEATHER SERVICE JACKSONVILLE FL
300 PM EDT FRI APR 18 2014

FLZ020>025-030>033-035>038-040-182000-
...FLORIDA...

CITY           SKY/WX    TMP DP  RH WIND       PRES   REMARKS
CECIL FIELD    LGT RAIN  72  72 100 SE12      30.00F
HERLONG FIELD  NOT AVBL
FERNANDINA BCH NOT AVBL
LAKE CITY      NOT AVBL
JUNIPER SPGS   NOT AVBL
BUNNELL        RAIN      72  72 100 E6        30.00F
KEYSTONE HGTS  MOCLDY    73  72  94 S7        30.00S
$$

GAZ132>136-149>154-162>166-182000-
...GEORGIA...

CITY           SKY/WX    TMP DP  RH WIND       PRES   REMARKS
JESUP          LGT RAIN  57  57 100 NE12G18   30.05F
HOMERVILLE     HVY RAIN  59  59 100 NE3       30.07R
SWAINSBORO     HVY RAIN  52  52 100 NE13G20   30.16S
CORDELE        NOT AVBL
$$

PLEASE NOTE:  THESE OBSERVATIONS ARE NOT QUALITY CONTROLLED AND MAY
NOT BE AVAILABLE AT ALL TIMES.
$$



USA.gov is the U.S. government's official web portal to all federal, state and local government web resources and services.